Station Historical Data
Daily Summary for June 16, 2012 Units:  English    Metric   Both
« Previous Day
Next Day »
Daily Weekly Monthly Yearly Custom
  High: Low: Average:
Temperature: 85.6 °F 68.5 °F 76.9 °F
Dew Point: 69.3 °F 62.8 °F 66.4 °F
Humidity: 90% 53% 71%
Wind Speed: 10.0mph 0.0mph 3.2mph
Wind Gust: 15.0mph - -
Wind- - SE
Pressure: 30.17 in 30.00 in -
Precipitation: 0.00 in    
Historical Graphs
 
 
Tabular Data for June 16, 2012
Time Temperature Dew Point Pressure Wind Wind Speed Wind Gust Humidity Rainfall Rate (Hourly) Conditions
00:00 73.9 °F 67.7 °F 30.05 in SE 4.0 mph 8.0 mph 81% 0.00 in
00:05 73.8 °F 67.6 °F 30.05 in East 5.0 mph 6.0 mph 81% 0.00 in
00:10 73.8 °F 67.6 °F 30.05 in SE 4.0 mph 7.0 mph 81% 0.00 in
00:15 73.7 °F 67.2 °F 30.05 in SE 3.0 mph 6.0 mph 80% 0.00 in
00:20 73.7 °F 67.2 °F 30.05 in SE 2.0 mph 6.0 mph 80% 0.00 in
00:25 73.8 °F 66.9 °F 30.05 in SE 2.0 mph 4.0 mph 79% 0.00 in
00:30 73.7 °F 66.8 °F 30.06 in SSE 2.0 mph 3.0 mph 79% 0.00 in
00:35 73.5 °F 66.6 °F 30.05 in SSE 1.0 mph 3.0 mph 79% 0.00 in
00:40 73.2 °F 66.7 °F 30.05 in Calm   1.0 mph 80% 0.00 in
00:45 72.9 °F 66.4 °F 30.05 in Calm     80% 0.00 in
00:50 72.6 °F 66.4 °F 30.05 in Calm     81% 0.00 in
00:55 72.3 °F 66.5 °F 30.06 in Calm     82% 0.00 in
01:01 71.9 °F 66.1 °F 30.05 in Calm     82% 0.00 in
01:06 71.8 °F 66.4 °F 30.06 in East 2.0 mph 2.0 mph 83% 0.00 in
01:11 72.2 °F 66.4 °F 30.05 in ESE 3.0 mph 3.0 mph 82% 0.00 in
01:16 72.4 °F 66.2 °F 30.05 in SE 3.0 mph 4.0 mph 81% 0.00 in
01:21 72.6 °F 66.1 °F 30.05 in ESE 3.0 mph 4.0 mph 80% 0.00 in
01:26 72.5 °F 66.0 °F 30.05 in ESE 3.0 mph 3.0 mph 80% 0.00 in
01:31 72.4 °F 66.2 °F 30.05 in ESE 3.0 mph 4.0 mph 81% 0.00 in
01:36 72.3 °F 66.2 °F 30.05 in SE 2.0 mph 3.0 mph 81% 0.00 in
01:41 72.3 °F 66.2 °F 30.05 in Calm   2.0 mph 81% 0.00 in
01:46 72.1 °F 65.9 °F 30.05 in ESE 1.0 mph 1.0 mph 81% 0.00 in
01:51 72.0 °F 65.9 °F 30.05 in East 2.0 mph 2.0 mph 81% 0.00 in
01:56 71.9 °F 65.8 °F 30.05 in ESE 2.0 mph 3.0 mph 81% 0.00 in
02:01 71.9 °F 65.8 °F 30.05 in SE 3.0 mph 4.0 mph 81% 0.00 in
02:06 72.0 °F 65.9 °F 30.05 in SE 2.0 mph 3.0 mph 81% 0.00 in
02:11 72.0 °F 65.9 °F 30.05 in SE 3.0 mph 4.0 mph 81% 0.00 in
02:16 72.0 °F 65.9 °F 30.05 in SE 3.0 mph 4.0 mph 81% 0.00 in
02:21 71.9 °F 65.8 °F 30.05 in ESE 4.0 mph 4.0 mph 81% 0.00 in
02:26 71.8 °F 65.7 °F 30.06 in ESE 2.0 mph 4.0 mph 81% 0.00 in
02:31 71.8 °F 65.7 °F 30.05 in SE 3.0 mph 4.0 mph 81% 0.00 in
02:36 71.7 °F 65.6 °F 30.05 in ESE 3.0 mph 4.0 mph 81% 0.00 in
02:41 71.5 °F 65.7 °F 30.06 in ESE 3.0 mph 4.0 mph 82% 0.00 in
02:46 71.4 °F 65.6 °F 30.05 in ESE 3.0 mph 4.0 mph 82% 0.00 in
02:51 71.3 °F 65.9 °F 30.05 in ESE 3.0 mph 5.0 mph 83% 0.00 in
02:56 71.4 °F 66.0 °F 30.05 in SE 2.0 mph 5.0 mph 83% 0.00 in
03:01 71.4 °F 66.0 °F 30.05 in SE 3.0 mph 5.0 mph 83% 0.00 in
03:06 71.6 °F 66.2 °F 30.05 in ESE 4.0 mph 5.0 mph 83% 0.00 in
03:11 71.7 °F 66.3 °F 30.05 in SE 3.0 mph 5.0 mph 83% 0.00 in
03:16 71.7 °F 66.3 °F 30.05 in ESE 3.0 mph 4.0 mph 83% 0.00 in
03:21 71.5 °F 66.1 °F 30.06 in SE 3.0 mph 5.0 mph 83% 0.00 in
03:26 71.4 °F 66.3 °F 30.06 in ESE 4.0 mph 4.0 mph 84% 0.00 in
03:31 71.2 °F 66.5 °F 30.05 in SE 3.0 mph 4.0 mph 85% 0.00 in
03:36 71.4 °F 66.7 °F 30.06 in SE 2.0 mph 3.0 mph 85% 0.00 in
03:41 71.4 °F 66.3 °F 30.06 in ESE 3.0 mph 3.0 mph 84% 0.00 in
03:46 71.5 °F 66.4 °F 30.06 in SE 2.0 mph 2.0 mph 84% 0.00 in
03:51 71.5 °F 66.4 °F 30.06 in ESE 2.0 mph 4.0 mph 84% 0.00 in
03:56 71.6 °F 66.5 °F 30.06 in ESE 4.0 mph 5.0 mph 84% 0.00 in
04:01 71.4 °F 66.3 °F 30.06 in SE 4.0 mph 5.0 mph 84% 0.00 in
04:06 70.9 °F 66.2 °F 30.06 in SE 3.0 mph 6.0 mph 85% 0.00 in
04:11 70.7 °F 66.3 °F 30.06 in ESE 4.0 mph 6.0 mph 86% 0.00 in
04:16 70.5 °F 66.1 °F 30.06 in SE 3.0 mph 6.0 mph 86% 0.00 in
04:21 70.5 °F 66.1 °F 30.06 in SE 5.0 mph 7.0 mph 86% 0.00 in
04:26 70.6 °F 66.2 °F 30.06 in SE 6.0 mph 6.0 mph 86% 0.00 in
04:32 70.7 °F 66.3 °F 30.06 in ESE 5.0 mph 6.0 mph 86% 0.00 in
04:37 70.9 °F 66.2 °F 30.06 in SE 3.0 mph 6.0 mph 85% 0.00 in
04:42 70.8 °F 66.4 °F 30.06 in ESE 3.0 mph 4.0 mph 86% 0.00 in
04:47 70.7 °F 66.3 °F 30.06 in SE 2.0 mph 3.0 mph 86% 0.00 in
04:52 70.5 °F 66.1 °F 30.07 in SE 2.0 mph 3.0 mph 86% 0.00 in
04:57 70.4 °F 66.3 °F 30.06 in SE 4.0 mph 4.0 mph 87% 0.00 in
05:02 70.5 °F 66.1 °F 30.07 in SE 2.0 mph 4.0 mph 86% 0.00 in
05:07 70.6 °F 66.2 °F 30.07 in SE 3.0 mph 5.0 mph 86% 0.00 in
05:12 70.6 °F 66.2 °F 30.07 in SE 2.0 mph 4.0 mph 86% 0.00 in
05:17 70.6 °F 66.2 °F 30.07 in ESE 2.0 mph 4.0 mph 86% 0.00 in
05:22 70.4 °F 66.0 °F 30.07 in SE 1.0 mph 3.0 mph 86% 0.00 in
05:27 70.2 °F 66.2 °F 30.07 in ESE 2.0 mph 2.0 mph 87% 0.00 in
05:32 69.9 °F 65.9 °F 30.07 in ESE 2.0 mph 3.0 mph 87% 0.00 in
05:37 69.6 °F 65.9 °F 30.08 in ESE 4.0 mph 5.0 mph 88% 0.00 in
05:42 69.5 °F 65.8 °F 30.07 in SE 3.0 mph 4.0 mph 88% 0.00 in
05:47 69.3 °F 65.6 °F 30.08 in SE 3.0 mph 3.0 mph 88% 0.00 in
05:52 69.2 °F 65.8 °F 30.08 in SE 1.0 mph 3.0 mph 89% 0.00 in
05:57 69.2 °F 65.8 °F 30.08 in East 2.0 mph 4.0 mph 89% 0.00 in
06:02 69.1 °F 65.7 °F 30.08 in Calm   2.0 mph 89% 0.00 in
06:07 69.0 °F 65.6 °F 30.09 in East 1.0 mph 2.0 mph 89% 0.00 in
06:12 69.0 °F 65.6 °F 30.09 in East 1.0 mph 2.0 mph 89% 0.00 in
06:17 69.0 °F 65.6 °F 30.09 in Calm   1.0 mph 89% 0.00 in
06:22 68.8 °F 65.4 °F 30.09 in Calm   1.0 mph 89% 0.00 in
06:27 68.7 °F 65.3 °F 30.09 in Calm   1.0 mph 89% 0.00 in
06:32 68.6 °F 65.6 °F 30.10 in Calm     90% 0.00 in
06:37 68.5 °F 65.5 °F 30.10 in Calm     90% 0.00 in
06:42 68.5 °F 65.5 °F 30.10 in East 1.0 mph 1.0 mph 90% 0.00 in
06:47 68.5 °F 65.5 °F 30.11 in Calm     90% 0.00 in
06:52 68.5 °F 65.5 °F 30.11 in Calm     90% 0.00 in
06:57 68.6 °F 65.6 °F 30.11 in Calm     90% 0.00 in
07:02 68.8 °F 65.8 °F 30.11 in Calm   2.0 mph 90% 0.00 in
07:07 69.0 °F 65.9 °F 30.12 in ESE 1.0 mph 2.0 mph 90% 0.00 in
07:12 69.2 °F 66.2 °F 30.12 in ENE 1.0 mph 3.0 mph 90% 0.00 in
07:17 69.3 °F 66.2 °F 30.12 in ESE 1.0 mph 2.0 mph 90% 0.00 in
07:22 69.4 °F 66.3 °F 30.12 in SE 1.0 mph 3.0 mph 90% 0.00 in
07:27 69.4 °F 66.3 °F 30.12 in Calm   2.0 mph 90% 0.00 in
07:32 69.5 °F 66.4 °F 30.13 in SE 1.0 mph 2.0 mph 90% 0.00 in
07:37 69.7 °F 66.3 °F 30.13 in SE 2.0 mph 4.0 mph 89% 0.00 in
07:42 70.0 °F 66.3 °F 30.13 in SE 4.0 mph 6.0 mph 88% 0.00 in
07:47 70.3 °F 66.6 °F 30.13 in ESE 2.0 mph 6.0 mph 88% 0.00 in
07:52 70.5 °F 66.4 °F 30.13 in SE 5.0 mph 7.0 mph 87% 0.00 in
07:57 70.8 °F 66.7 °F 30.14 in SE 4.0 mph 5.0 mph 87% 0.00 in
08:02 71.1 °F 66.7 °F 30.14 in SE 6.0 mph 6.0 mph 86% 0.00 in
08:07 71.3 °F 66.6 °F 30.14 in ESE 4.0 mph 6.0 mph 85% 0.00 in
08:12 71.4 °F 66.3 °F 30.14 in SE 5.0 mph 8.0 mph 84% 0.00 in
08:17 71.5 °F 66.8 °F 30.14 in SE 4.0 mph 6.0 mph 85% 0.00 in
08:22 71.5 °F 66.4 °F 30.15 in ESE 4.0 mph 6.0 mph 84% 0.00 in
08:27 71.6 °F 66.2 °F 30.15 in SE 5.0 mph 5.0 mph 83% 0.00 in
08:32 71.6 °F 66.2 °F 30.15 in ESE 5.0 mph 7.0 mph 83% 0.00 in
08:37 71.6 °F 66.2 °F 30.15 in ESE 4.0 mph 8.0 mph 83% 0.00 in
08:42 71.6 °F 66.5 °F 30.15 in SE 5.0 mph 6.0 mph 84% 0.00 in
08:47 71.6 °F 66.5 °F 30.15 in ESE 4.0 mph 6.0 mph 84% 0.00 in
08:52 71.6 °F 66.2 °F 30.15 in ESE 4.0 mph 7.0 mph 83% 0.00 in
08:57 71.8 °F 66.7 °F 30.15 in ESE 3.0 mph 5.0 mph 84% 0.00 in
09:02 72.0 °F 66.6 °F 30.15 in SE 3.0 mph 5.0 mph 83% 0.00 in
09:07 72.3 °F 66.5 °F 30.15 in SE 3.0 mph 6.0 mph 82% 0.00 in
09:12 72.8 °F 66.6 °F 30.15 in SE 6.0 mph 9.0 mph 81% 0.00 in
09:17 73.4 °F 66.9 °F 30.15 in SSE 4.0 mph 8.0 mph 80% 0.00 in
09:22 73.8 °F 66.5 °F 30.15 in SE 5.0 mph 9.0 mph 78% 0.00 in
09:27 74.5 °F 66.4 °F 30.15 in ESE 7.0 mph 10.0 mph 76% 0.00 in
09:32 74.7 °F 66.3 °F 30.15 in ESE 4.0 mph 11.0 mph 75% 0.00 in
09:37 75.0 °F 66.9 °F 30.15 in SE 7.0 mph 8.0 mph 76% 0.00 in
09:42 75.3 °F 66.8 °F 30.15 in SE 4.0 mph 8.0 mph 75% 0.00 in
09:47 75.8 °F 66.5 °F 30.15 in SE 9.0 mph 11.0 mph 73% 0.00 in
09:52 76.2 °F 66.1 °F 30.15 in ESE 6.0 mph 14.0 mph 71% 0.00 in
09:57 76.4 °F 65.9 °F 30.15 in SSE 5.0 mph 12.0 mph 70% 0.00 in
10:02 76.0 °F 65.1 °F 30.15 in SSE 8.0 mph 14.0 mph 69% 0.00 in
10:07 76.2 °F 66.5 °F 30.15 in ESE 9.0 mph 13.0 mph 72% 0.00 in
10:12 76.6 °F 66.1 °F 30.15 in SE 6.0 mph 11.0 mph 70% 0.00 in
10:17 77.2 °F 67.1 °F 30.15 in SSE 6.0 mph 9.0 mph 71% 0.00 in
10:22 77.7 °F 65.9 °F 30.15 in SSE 5.0 mph 10.0 mph 67% 0.00 in
10:27 77.9 °F 66.1 °F 30.15 in SE 9.0 mph 9.0 mph 67% 0.00 in
10:32 78.1 °F 66.7 °F 30.15 in SSE 5.0 mph 9.0 mph 68% 0.00 in
10:38 78.3 °F 65.1 °F 30.15 in South 10.0 mph 10.0 mph 64% 0.00 in
10:43 78.6 °F 65.9 °F 30.16 in SSE 7.0 mph 8.0 mph 65% 0.00 in
10:48 78.7 °F 63.2 °F 30.16 in SSW 7.0 mph 15.0 mph 59% 0.00 in
10:53 78.4 °F 64.3 °F 30.16 in ESE 7.0 mph 9.0 mph 62% 0.00 in
10:58 78.5 °F 63.5 °F 30.16 in SSE 8.0 mph 10.0 mph 60% 0.00 in
11:03 78.3 °F 62.8 °F 30.16 in ESE 6.0 mph 12.0 mph 59% 0.00 in
11:08 78.1 °F 63.1 °F 30.16 in ESE 6.0 mph 9.0 mph 60% 0.00 in
11:13 77.8 °F 62.8 °F 30.16 in SE 5.0 mph 10.0 mph 60% 0.00 in
11:18 77.5 °F 63.5 °F 30.16 in SE 5.0 mph 10.0 mph 62% 0.00 in
11:23 77.7 °F 64.6 °F 30.16 in SSE 4.0 mph 10.0 mph 64% 0.00 in
11:28 78.5 °F 64.9 °F 30.16 in SSE 6.0 mph 9.0 mph 63% 0.00 in
11:33 79.0 °F 63.5 °F 30.16 in SE 7.0 mph 11.0 mph 59% 0.00 in
11:38 79.1 °F 64.0 °F 30.17 in SE 5.0 mph 8.0 mph 60% 0.00 in
11:43 79.3 °F 64.2 °F 30.16 in SE 6.0 mph 8.0 mph 60% 0.00 in
11:48 79.5 °F 64.4 °F 30.16 in South 7.0 mph 8.0 mph 60% 0.00 in
11:53 79.8 °F 65.2 °F 30.16 in SSW 5.0 mph 9.0 mph 61% 0.00 in
11:58 79.9 °F 65.3 °F 30.16 in South 3.0 mph 9.0 mph 61% 0.00 in
12:03 80.1 °F 64.5 °F 30.16 in SE 7.0 mph 7.0 mph 59% 0.00 in
12:08 80.3 °F 65.2 °F 30.16 in SSW 4.0 mph 10.0 mph 60% 0.00 in
12:13 80.2 °F 65.1 °F 30.16 in SSW 4.0 mph 9.0 mph 60% 0.00 in
12:18 80.3 °F 64.7 °F 30.16 in SSE 5.0 mph 8.0 mph 59% 0.00 in
12:23 80.7 °F 64.1 °F 30.16 in SSE 4.0 mph 8.0 mph 57% 0.00 in
12:28 80.7 °F 65.5 °F 30.16 in SSE 6.0 mph 8.0 mph 60% 0.00 in
12:33 81.0 °F 66.3 °F 30.16 in SE 5.0 mph 5.0 mph 61% 0.00 in
12:38 81.4 °F 65.2 °F 30.16 in SE 8.0 mph 10.0 mph 58% 0.00 in
12:43 80.7 °F 64.6 °F 30.16 in SSE 9.0 mph 10.0 mph 58% 0.00 in
12:48 80.5 °F 65.3 °F 30.16 in SSE 5.0 mph 8.0 mph 60% 0.00 in
12:53 80.5 °F 64.9 °F 30.15 in South 3.0 mph 6.0 mph 59% 0.00 in
12:58 80.7 °F 65.5 °F 30.15 in SSE 6.0 mph 6.0 mph 60% 0.00 in
13:03 80.8 °F 65.6 °F 30.15 in Calm   4.0 mph 60% 0.00 in
13:08 81.2 °F 68.3 °F 30.15 in SSE 4.0 mph 8.0 mph 65% 0.00 in
13:13 81.5 °F 65.8 °F 30.15 in SE 8.0 mph 8.0 mph 59% 0.00 in
13:18 81.3 °F 66.1 °F 30.15 in ESE 3.0 mph 6.0 mph 60% 0.00 in
13:23 81.5 °F 67.2 °F 30.15 in South 3.0 mph 4.0 mph 62% 0.00 in
13:28 81.8 °F 66.6 °F 30.15 in SE 8.0 mph 8.0 mph 60% 0.00 in
13:33 82.1 °F 67.3 °F 30.15 in SW 6.0 mph 9.0 mph 61% 0.00 in
13:38 82.0 °F 66.8 °F 30.14 in WSW 5.0 mph 8.0 mph 60% 0.00 in
13:43 82.3 °F 66.6 °F 30.14 in SSE 7.0 mph 7.0 mph 59% 0.00 in
13:49 82.6 °F 65.3 °F 30.14 in SW 1.0 mph 7.0 mph 56% 0.00 in
13:53 83.0 °F 66.2 °F 30.14 in SSW 3.0 mph 9.0 mph 57% 0.00 in
13:58 83.0 °F 65.2 °F 30.14 in SSW 2.0 mph 7.0 mph 55% 0.00 in
14:04 83.3 °F 65.5 °F 30.14 in SW 3.0 mph 4.0 mph 55% 0.00 in
14:09 83.3 °F 65.5 °F 30.13 in East 2.0 mph 6.0 mph 55% 0.00 in
14:14 83.1 °F 67.3 °F 30.13 in West 2.0 mph 5.0 mph 59% 0.00 in
14:19 83.4 °F 68.1 °F 30.13 in SW 3.0 mph 5.0 mph 60% 0.00 in
14:24 83.8 °F 66.4 °F 30.13 in SE 4.0 mph 7.0 mph 56% 0.00 in
14:29 83.8 °F 66.4 °F 30.12 in West 2.0 mph 5.0 mph 56% 0.00 in
14:34 83.7 °F 64.8 °F 30.12 in Calm   6.0 mph 53% 0.00 in
14:39 83.8 °F 65.9 °F 30.12 in SSW 1.0 mph 7.0 mph 55% 0.00 in
14:44 83.9 °F 67.1 °F 30.12 in SE 6.0 mph 6.0 mph 57% 0.00 in
14:49 83.6 °F 65.7 °F 30.11 in WNW 1.0 mph 6.0 mph 55% 0.00 in
14:54 83.8 °F 66.4 °F 30.11 in South 4.0 mph 7.0 mph 56% 0.00 in
14:59 84.1 °F 66.7 °F 30.11 in SE 1.0 mph 2.0 mph 56% 0.00 in
15:04 84.8 °F 66.8 °F 30.10 in South 3.0 mph 5.0 mph 55% 0.00 in
15:09 85.1 °F 67.7 °F 30.10 in WSW 6.0 mph 6.0 mph 56% 0.00 in
15:14 84.6 °F 66.1 °F 30.10 in SSE 1.0 mph 4.0 mph 54% 0.00 in
15:19 84.7 °F 66.8 °F 30.10 in SSW 3.0 mph 6.0 mph 55% 0.00 in
15:24 84.7 °F 67.8 °F 30.10 in SSE 4.0 mph 9.0 mph 57% 0.00 in
15:29 84.4 °F 66.5 °F 30.10 in WSW 7.0 mph 9.0 mph 55% 0.00 in
15:34 83.7 °F 66.3 °F 30.09 in SE 5.0 mph 7.0 mph 56% 0.00 in
15:39 84.1 °F 66.7 °F 30.09 in Calm   2.0 mph 56% 0.00 in
15:44 84.2 °F 66.3 °F 30.09 in WSW 3.0 mph 4.0 mph 55% 0.00 in
15:49 84.7 °F 69.3 °F 30.09 in SSW 6.0 mph 7.0 mph 60% 0.00 in
15:54 84.9 °F 68.0 °F 30.09 in SW 6.0 mph 6.0 mph 57% 0.00 in
15:59 84.7 °F 66.8 °F 30.09 in SE 2.0 mph 6.0 mph 55% 0.00 in
16:04 84.9 °F 66.9 °F 30.09 in SSW 2.0 mph 5.0 mph 55% 0.00 in
16:09 85.3 °F 68.3 °F 30.08 in SSW 3.0 mph 6.0 mph 57% 0.00 in
16:14 85.3 °F 67.3 °F 30.08 in South 4.0 mph 7.0 mph 55% 0.00 in
16:19 85.3 °F 67.8 °F 30.08 in SSE 5.0 mph 7.0 mph 56% 0.00 in
16:24 85.3 °F 66.8 °F 30.08 in SE 1.0 mph 4.0 mph 54% 0.00 in
16:29 85.6 °F 68.6 °F 30.08 in SSW 5.0 mph 7.0 mph 57% 0.00 in
16:34 85.2 °F 68.8 °F 30.08 in SSE 1.0 mph 6.0 mph 58% 0.00 in
16:39 85.3 °F 67.3 °F 30.08 in South 4.0 mph 5.0 mph 55% 0.00 in
16:44 84.8 °F 66.8 °F 30.07 in East 3.0 mph 5.0 mph 55% 0.00 in
16:49 85.1 °F 67.7 °F 30.07 in SSW 3.0 mph 6.0 mph 56% 0.00 in
16:54 85.0 °F 67.0 °F 30.07 in South 1.0 mph 5.0 mph 55% 0.00 in
16:59 85.4 °F 66.9 °F 30.07 in SSE 2.0 mph 5.0 mph 54% 0.00 in
17:04 85.5 °F 68.0 °F 30.07 in SE 5.0 mph 7.0 mph 56% 0.00 in
17:09 85.4 °F 66.9 °F 30.07 in SSW 5.0 mph 7.0 mph 54% 0.00 in
17:14 85.3 °F 66.8 °F 30.07 in SW 2.0 mph 7.0 mph 54% 0.00 in
17:19 85.5 °F 66.4 °F 30.06 in SSE 3.0 mph 3.0 mph 53% 0.00 in
17:25 85.5 °F 66.4 °F 30.06 in SSW 3.0 mph 6.0 mph 53% 0.00 in
17:30 85.6 °F 67.1 °F 30.06 in ESE 5.0 mph 6.0 mph 54% 0.00 in
17:35 85.0 °F 67.0 °F 30.06 in ESE 7.0 mph 7.0 mph 55% 0.00 in
17:40 84.9 °F 68.5 °F 30.05 in SE 4.0 mph 5.0 mph 58% 0.00 in
17:45 84.7 °F 67.8 °F 30.05 in ESE 5.0 mph 8.0 mph 57% 0.00 in
17:50 84.4 °F 67.0 °F 30.05 in SE 7.0 mph 7.0 mph 56% 0.00 in
17:55 83.8 °F 67.5 °F 30.05 in SSE 3.0 mph 8.0 mph 58% 0.00 in
18:00 83.4 °F 67.1 °F 30.05 in SE 2.0 mph 5.0 mph 58% 0.00 in
18:05 83.9 °F 67.1 °F 30.05 in ESE 5.0 mph 7.0 mph 57% 0.00 in
18:10 83.9 °F 66.5 °F 30.04 in ESE 4.0 mph 8.0 mph 56% 0.00 in
18:15 84.1 °F 67.7 °F 30.04 in ESE 7.0 mph 8.0 mph 58% 0.00 in
18:20 84.1 °F 67.7 °F 30.04 in SE 5.0 mph 8.0 mph 58% 0.00 in
18:25 83.9 °F 66.5 °F 30.04 in ESE 6.0 mph 8.0 mph 56% 0.00 in
18:30 83.9 °F 67.6 °F 30.03 in East 4.0 mph 7.0 mph 58% 0.00 in
18:35 83.8 °F 67.0 °F 30.03 in SE 3.0 mph 9.0 mph 57% 0.00 in
18:40 83.8 °F 67.5 °F 30.03 in ESE 8.0 mph 8.0 mph 58% 0.00 in
18:45 83.7 °F 66.3 °F 30.03 in East 5.0 mph 8.0 mph 56% 0.00 in
18:50 83.8 °F 66.4 °F 30.02 in SE 3.0 mph 6.0 mph 56% 0.00 in
18:55 83.9 °F 67.6 °F 30.02 in SE 4.0 mph 5.0 mph 58% 0.00 in
19:00 84.0 °F 67.7 °F 30.02 in East 5.0 mph 6.0 mph 58% 0.00 in
19:05 83.7 °F 66.9 °F 30.02 in SE 4.0 mph 6.0 mph 57% 0.00 in
19:10 83.7 °F 67.4 °F 30.02 in East 3.0 mph 5.0 mph 58% 0.00 in
19:15 83.6 °F 67.3 °F 30.02 in East 4.0 mph 7.0 mph 58% 0.00 in
19:20 83.4 °F 67.6 °F 30.02 in ESE 3.0 mph 6.0 mph 59% 0.00 in
19:25 83.3 °F 67.5 °F 30.02 in SE 3.0 mph 6.0 mph 59% 0.00 in
19:30 83.2 °F 67.4 °F 30.01 in East 5.0 mph 6.0 mph 59% 0.00 in
19:35 83.0 °F 67.7 °F 30.01 in East 6.0 mph 6.0 mph 60% 0.00 in
19:40 82.9 °F 68.6 °F 30.01 in ESE 4.0 mph 5.0 mph 62% 0.00 in
19:45 82.8 °F 68.5 °F 30.01 in ESE 5.0 mph 5.0 mph 62% 0.00 in
19:50 82.7 °F 67.4 °F 30.01 in ESE 5.0 mph 6.0 mph 60% 0.00 in
19:55 82.5 °F 67.2 °F 30.01 in ESE 3.0 mph 6.0 mph 60% 0.00 in
20:00 82.4 °F 68.1 °F 30.00 in East 1.0 mph 4.0 mph 62% 0.00 in
20:05 82.2 °F 67.9 °F 30.01 in East 1.0 mph 4.0 mph 62% 0.00 in
20:10 82.0 °F 67.7 °F 30.01 in SE 2.0 mph 3.0 mph 62% 0.00 in
20:15 81.9 °F 67.6 °F 30.01 in East 3.0 mph 3.0 mph 62% 0.00 in
20:20 81.8 °F 68.0 °F 30.01 in ESE 1.0 mph 2.0 mph 63% 0.00 in
20:25 81.7 °F 67.9 °F 30.01 in ESE 1.0 mph 1.0 mph 63% 0.00 in
20:30 81.6 °F 67.8 °F 30.01 in Calm   1.0 mph 63% 0.00 in
20:36 81.3 °F 68.0 °F 30.01 in Calm   1.0 mph 64% 0.00 in
20:41 81.0 °F 67.7 °F 30.01 in Calm   1.0 mph 64% 0.00 in
20:45 80.9 °F 67.6 °F 30.01 in Calm     64% 0.00 in
20:51 80.7 °F 68.3 °F 30.01 in East 1.0 mph 1.0 mph 66% 0.00 in
20:56 79.6 °F 68.5 °F 30.02 in Calm     69% 0.00 in
21:01 78.6 °F 67.6 °F 30.02 in Calm     69% 0.00 in
21:06 77.8 °F 67.2 °F 30.02 in Calm     70% 0.00 in
21:11 77.3 °F 67.6 °F 30.02 in Calm     72% 0.00 in
21:16 76.7 °F 67.4 °F 30.02 in Calm     73% 0.00 in
21:21 76.1 °F 67.2 °F 30.02 in Calm     74% 0.00 in
21:26 75.9 °F 67.0 °F 30.02 in ESE 1.0 mph 1.0 mph 74% 0.00 in
21:31 76.0 °F 67.1 °F 30.01 in ESE 1.0 mph 2.0 mph 74% 0.00 in
21:36 76.1 °F 67.2 °F 30.01 in East 2.0 mph 2.0 mph 74% 0.00 in
21:41 75.9 °F 67.4 °F 30.02 in ESE 1.0 mph 1.0 mph 75% 0.00 in
21:46 75.7 °F 67.2 °F 30.02 in ESE 2.0 mph 2.0 mph 75% 0.00 in
21:51 75.7 °F 67.2 °F 30.02 in ESE 1.0 mph 1.0 mph 75% 0.00 in
21:56 75.7 °F 66.8 °F 30.03 in ESE 1.0 mph 2.0 mph 74% 0.00 in
22:01 75.7 °F 66.8 °F 30.03 in ESE 1.0 mph 1.0 mph 74% 0.00 in
22:06 75.7 °F 66.8 °F 30.03 in ESE 1.0 mph 2.0 mph 74% 0.00 in
22:11 75.6 °F 66.7 °F 30.03 in ESE 2.0 mph 3.0 mph 74% 0.00 in
22:16 75.8 °F 66.5 °F 30.03 in ESE 2.0 mph 3.0 mph 73% 0.00 in
22:21 75.9 °F 66.6 °F 30.03 in ESE 2.0 mph 2.0 mph 73% 0.00 in
22:26 75.9 °F 66.2 °F 30.03 in SE 2.0 mph 3.0 mph 72% 0.00 in
22:31 75.7 °F 66.0 °F 30.03 in ESE 3.0 mph 4.0 mph 72% 0.00 in
22:36 75.6 °F 65.9 °F 30.03 in ESE 4.0 mph 4.0 mph 72% 0.00 in
22:41 75.6 °F 66.3 °F 30.03 in ESE 3.0 mph 4.0 mph 73% 0.00 in
22:46 75.4 °F 66.2 °F 30.03 in ESE 3.0 mph 5.0 mph 73% 0.00 in
22:51 75.2 °F 66.3 °F 30.03 in SE 2.0 mph 3.0 mph 74% 0.00 in
22:56 74.8 °F 66.0 °F 30.03 in SE 1.0 mph 2.0 mph 74% 0.00 in
23:01 74.6 °F 66.2 °F 30.03 in ESE 2.0 mph 4.0 mph 75% 0.00 in
23:06 74.5 °F 66.1 °F 30.03 in SE 2.0 mph 3.0 mph 75% 0.00 in
23:11 74.4 °F 66.0 °F 30.03 in ESE 2.0 mph 3.0 mph 75% 0.00 in
23:16 74.3 °F 65.9 °F 30.03 in ESE 2.0 mph 2.0 mph 75% 0.00 in
23:21 74.2 °F 65.8 °F 30.03 in ESE 1.0 mph 2.0 mph 75% 0.00 in
23:26 74.1 °F 65.7 °F 30.03 in ESE 3.0 mph 3.0 mph 75% 0.00 in
23:31 74.2 °F 65.4 °F 30.03 in SE 3.0 mph 4.0 mph 74% 0.00 in
23:36 74.2 °F 65.4 °F 30.03 in SE 3.0 mph 5.0 mph 74% 0.00 in
23:41 74.0 °F 65.6 °F 30.03 in SE 1.0 mph 3.0 mph 75% 0.00 in
23:46 73.9 °F 65.5 °F 30.03 in Calm   1.0 mph 75% 0.00 in
23:51 73.7 °F 65.3 °F 30.03 in SE 1.0 mph 1.0 mph 75% 0.00 in
23:56 73.2 °F 65.2 °F 30.04 in Calm     76% 0.00 in
Compliments of Weather Underground